SL-8 DEB

Satellite information

Favourite Embed

Satellite Type and Status

DEBRISIN ORBIT

Key statistics

Satellite SL-8 DEB at a glance.

Uptime

12679

Days in orbit

Revolutions

≈ 12.4

Per day

Orbit

LEO

Low Earth Orbit

Inclination

73.9

Latest

Satellite identification and parameters

Extended collection of information and parameters for SL-8 DEB.

Object identification

Identified? True

Debris? True

Object name: SL-8 DEB

International designator: 1991-009CM

Object number (NORAD): 22842

Object ID (CCSDS): 22842

Country: COMMONWEALTH OF INDEPENDENT STATES (CIS)

Current information (Y/N): Y

RCS size: SMALL

Orbital parameters

Period: 116.456 minutes

Inclination: 73.8822 deg

SMA: 7899.536 km

Apoapsis: 1632.115 km

Periapsis: 1410.687 km

RAAN: 212.3215 deg

Eccentricy: 0.01401521

Argument of periapsis: 265.9578 deg

Mean anomaly: 154.228 deg

Mean motion: 12.36517811 rev/day

Mean motion (dot): -0.00000131 rev/day2

B* drag term: -0.00086427909 1/REarth

Two-line elements (TLE)

Creation date: Oct. 26, 2025, 2:54 a.m.

Reference frame: TEME

Reference center: EARTH

Epoch: Oct. 25, 2025, 8:01 p.m. UTC

TLE line 0: 0 SL-8 DEB

TLE line 1: 1 22842U 91009CM 25298.83439367 -.00000131 00000-0 -86428-3 0 9994

TLE line 2: 2 22842 73.8822 212.3215 0140152 265.9578 154.2280 12.36517811561202

Live tracking on map

Real-time ground track for satellite SL-8 DEB.

In-orbit conjunctions

A list of the most updated potential collisions computed for object SL-8 DEB.

Target Orbit TCA Probability of collision Miss distance Type
COSMOS 1436 LEO 2024-08-28 23:27:06 0.0001096136 686.0 (m) PAYLOAD
SL-8 DEB LEO 2024-07-28 07:22:13 0.0001299734 177.0 (m) DEBRIS

Associated space launch

Military communications satellites

SL-8 DEB was lifted into orbit during the mission ‘Kosmos-3M | Strela-1M 353-360’, on board a Kosmos-3M space rocket.

The launch took place on Feb. 12, 1991, 2:44 a.m. from 133/3 (133L).

For more information about the launch, click the button.

Launch to space Kosmos-3M | Strela-1M 353-360
Kosmos-3M | Strela-1M 353-360

Agency: N/A

Status: Launch Successful

Launch date: Feb. 12, 1991, 2:44 a.m. UTC

Rocket: Kosmos-3M

Launch pad: 133/3 (133L)

Location: Plesetsk Cosmodrome, Russian Federation

...

Latest news about this satellite

There are no fresh news available about this satellite. Check back as we update our databases every day.


Newsletter sign-up

Weekly statistics, charts and insights to help you stay on top of the space industry.